When you browse on this site, cookies collect data to enhance your experience and personalize the content and advertising you see.
Visit our Privacy Policy to learn more. By continuing to use the site, you agree to this use of cookies and data.
  • In Hungary
  • List of Countries
  • For 7 days
  • Water Temperature
  • Satellite Maps
  • Weather Map
  • News
  • Weather Widgets
  • user-avatar
    Login

    Hourly Weather Yatağan

    Today, 17 February, Sunday

    Time Temperature Precipitation Wind Pressure Humidity
    00:00 +5°C° 0 mm 1 mps 727 mmHg 72%
    01:00 +4°C° 0 mm 2 mps 727 mmHg 71%
    02:00 +4°C° 0 mm 2 mps 726 mmHg 73%
    03:00 +3°C° 0 mm 2 mps 727 mmHg 73%
    04:00 +3°C° 0 mm 2 mps 727 mmHg 73%
    05:00 +3°C° 0 mm 2 mps 727 mmHg 73%
    06:00 +4°C° 0 mm 2 mps 727 mmHg 72%
    07:00 +4°C° 0 mm 2 mps 727 mmHg 71%
    08:00 +4°C° 0 mm 2 mps 727 mmHg 70%
    09:00 +8°C° 0 mm 1 mps 727 mmHg 63%
    10:00 +10°C° 0 mm 1 mps 728 mmHg 56%
    11:00 +12°C° 0 mm 1 mps 728 mmHg 49%
    12:00 +13°C° 0 mm 1 mps 727 mmHg 48%
    13:00 +14°C° 0 mm 1 mps 727 mmHg 47%
    14:00 +14°C° 0 mm 2 mps 727 mmHg 46%
    15:00 +14°C° 0 mm 1 mps 727 mmHg 50%
    16:00 +13°C° 0 mm 1 mps 727 mmHg 55%
    17:00 +12°C° 0 mm 1 mps 727 mmHg 59%
    18:00 +11°C° 0 mm 1 mps 727 mmHg 64%
    19:00 +9°C° 0 mm 1 mps 727 mmHg 69%
    20:00 +7°C° 0 mm 1 mps 727 mmHg 74%
    21:00 +7°C° 0 mm 1 mps 727 mmHg 73%
    22:00 +7°C° 0 mm 1 mps 727 mmHg 73%
    23:00 +6°C° 0 mm 1 mps 727 mmHg 73%

    Tomorrow, 18 February, Monday

    Time Temperature Precipitation Wind Pressure Humidity
    00:00 +6°C° 0 mm 1 mps 727 mmHg 71%
    01:00 +6°C° 0 mm 1 mps 727 mmHg 70%
    02:00 +6°C° 0 mm 1 mps 727 mmHg 69%
    03:00 +5°C° 0 mm 1 mps 727 mmHg 69%
    04:00 +5°C° 0 mm 1 mps 727 mmHg 68%
    05:00 +5°C° 0 mm 1 mps 727 mmHg 68%
    06:00 +5°C° 0 mm 2 mps 727 mmHg 67%
    07:00 +5°C° 0 mm 2 mps 727 mmHg 67%
    08:00 +6°C° 0 mm 2 mps 727 mmHg 66%
    09:00 +8°C° 0 mm 2 mps 727 mmHg 59%
    10:00 +10°C° 0 mm 2 mps 727 mmHg 51%
    11:00 +13°C° 0 mm 2 mps 728 mmHg 44%
    12:00 +14°C° 0 mm 2 mps 727 mmHg 42%
    13:00 +15°C° 0 mm 2 mps 727 mmHg 41%
    14:00 +16°C° 0 mm 2 mps 727 mmHg 39%
    15:00 +15°C° 0 mm 2 mps 727 mmHg 44%
    16:00 +14°C° 0 mm 1 mps 727 mmHg 49%
    17:00 +14°C° 0 mm 1 mps 726 mmHg 55%
    18:00 +12°C° 0 mm 1 mps 726 mmHg 58%
    19:00 +10°C° 0 mm 1 mps 726 mmHg 62%
    20:00 +9°C° 0 mm 1 mps 726 mmHg 65%
    21:00 +8°C° 0 mm 1 mps 727 mmHg 64%
    22:00 +8°C° 0 mm 1 mps 727 mmHg 63%
    23:00 +8°C° 0 mm 1 mps 727 mmHg 62%

    Day after tomorrow, 19 February, Tuesday

    Time Temperature Precipitation Wind Pressure Humidity
    00:00 +8°C° 0 mm 1 mps 727 mmHg 61%
    01:00 +8°C° 0 mm 1 mps 727 mmHg 60%
    02:00 +7°C° 0 mm 1 mps 727 mmHg 59%
    03:00 +7°C° 0 mm 1 mps 727 mmHg 59%
    04:00 +7°C° 0 mm 1 mps 727 mmHg 59%
    05:00 +7°C° 0 mm 1 mps 726 mmHg 58%
    06:00 +7°C° 0 mm 1 mps 727 mmHg 59%
    07:00 +8°C° 0 mm 1 mps 727 mmHg 59%
    08:00 +8°C° 0 mm 1 mps 727 mmHg 59%
    09:00 +11°C° 0 mm 1 mps 728 mmHg 53%
    10:00 +14°C° 0 mm 1 mps 728 mmHg 47%
    11:00 +16°C° 0 mm 1 mps 728 mmHg 41%
    12:00 +18°C° 0 mm 1 mps 728 mmHg 40%
    13:00 +18°C° 0 mm 1 mps 728 mmHg 39%
    14:00 +18°C° 0 mm 2 mps 727 mmHg 38%
    15:00 +18°C° 0 mm 1 mps 727 mmHg 44%
    16:00 +16°C° 0 mm 1 mps 727 mmHg 50%
    17:00 +15°C° 0 mm 1 mps 726 mmHg 56%
    18:00 +13°C° 0 mm 1 mps 727 mmHg 62%
    19:00 +12°C° 0 mm 1 mps 727 mmHg 67%
    20:00 +9°C° 0 mm 0 mps 727 mmHg 73%
    21:00 +8°C° 0 mm 0 mps 727 mmHg 73%
    22:00 +8°C° 0 mm 0 mps 727 mmHg 74%
    23:00 +8°C° 0 mm 0 mps 727 mmHg 75%

    20 February, Wednesday

    Time Temperature Precipitation Wind Pressure Humidity
    00:00 +8°C° 0 mm 0 mps 727 mmHg 74%
    01:00 +8°C° 0 mm 1 mps 727 mmHg 73%
    02:00 +8°C° 0 mm 1 mps 727 mmHg 73%
    03:00 +8°C° 0 mm 1 mps 727 mmHg 72%
    04:00 +8°C° 0 mm 1 mps 727 mmHg 71%
    05:00 +7°C° 0 mm 1 mps 727 mmHg 69%
    06:00 +8°C° 0 mm 1 mps 727 mmHg 67%
    07:00 +9°C° 0 mm 1 mps 727 mmHg 65%
    08:00 +9°C° 0 mm 1 mps 727 mmHg 63%
    09:00 +12°C° 0 mm 1 mps 728 mmHg 56%
    10:00 +14°C° 0 mm 1 mps 728 mmHg 50%
    11:00 +16°C° 0 mm 1 mps 728 mmHg 43%
    12:00 +16°C° 0 mm 1 mps 728 mmHg 44%
    13:00 +17°C° 0 mm 2 mps 728 mmHg 44%
    14:00 +17°C° 0 mm 2 mps 728 mmHg 44%
    15:00 +16°C° 0 mm 2 mps 727 mmHg 50%
    16:00 +16°C° 0 mm 2 mps 727 mmHg 56%
    17:00 +15°C° 0 mm 2 mps 727 mmHg 62%
    18:00 +13°C° 0 mm 1 mps 727 mmHg 69%
    19:00 +11°C° 0 mm 1 mps 728 mmHg 75%
    20:00 +8°C° 0 mm 0 mps 728 mmHg 82%
    21:00 +8°C° 0 mm 0 mps 728 mmHg 83%
    22:00 +8°C° 0 mm 0 mps 728 mmHg 83%
    23:00 +8°C° 0 mm 0 mps 728 mmHg 84%

    21 February, Thursday

    Time Temperature Precipitation Wind Pressure Humidity
    00:00 +7°C° 0 mm 0 mps 728 mmHg 83%
    01:00 +8°C° 0 mm 1 mps 728 mmHg 83%
    02:00 +8°C° 0 mm 1 mps 728 mmHg 82%
    03:00 +7°C° 0 mm 1 mps 728 mmHg 82%
    04:00 +7°C° 0 mm 1 mps 728 mmHg 81%
    05:00 +7°C° 0 mm 1 mps 728 mmHg 80%
    06:00 +8°C° 0 mm 1 mps 728 mmHg 78%
    07:00 +8°C° 0 mm 1 mps 728 mmHg 75%
    08:00 +9°C° 0 mm 1 mps 729 mmHg 72%
    09:00 +11°C° 0 mm 1 mps 729 mmHg 64%
    10:00 +13°C° 0 mm 1 mps 729 mmHg 55%
    11:00 +15°C° 0 mm 1 mps 729 mmHg 46%
    12:00 +16°C° 0 mm 2 mps 729 mmHg 44%
    13:00 +16°C° 0 mm 2 mps 729 mmHg 41%
    14:00 +17°C° 0 mm 2 mps 728 mmHg 39%
    15:00 +16°C° 0 mm 2 mps 728 mmHg 44%
    16:00 +16°C° 0 mm 2 mps 728 mmHg 49%
    17:00 +15°C° 0 mm 2 mps 728 mmHg 54%
    18:00 +13°C° 0 mm 1 mps 728 mmHg 58%
    19:00 +11°C° 0 mm 1 mps 728 mmHg 62%
    20:00 +10°C° 0 mm 1 mps 728 mmHg 66%
    21:00 +9°C° 0 mm 1 mps 729 mmHg 66%
    22:00 +9°C° 0 mm 1 mps 729 mmHg 65%
    23:00 +8°C° 0 mm 1 mps 729 mmHg 65%

    22 February, Friday

    Time Temperature Precipitation Wind Pressure Humidity
    00:00 +8°C° 0 mm 1 mps 729 mmHg 64%
    01:00 +8°C° 0 mm 1 mps 729 mmHg 64%
    02:00 +8°C° 0 mm 1 mps 728 mmHg 64%
    03:00 +7°C° 0 mm 1 mps 728 mmHg 64%
    04:00 +6°C° 0 mm 2 mps 728 mmHg 65%
    05:00 +6°C° 0 mm 2 mps 728 mmHg 65%
    06:00 +7°C° 0 mm 1 mps 728 mmHg 65%
    07:00 +8°C° 0 mm 1 mps 728 mmHg 64%
    08:00 +9°C° 0 mm 1 mps 728 mmHg 63%
    09:00 +11°C° 0 mm 1 mps 728 mmHg 56%
    10:00 +13°C° 0 mm 1 mps 728 mmHg 48%
    11:00 +15°C° 0 mm 1 mps 728 mmHg 41%
    12:00 +16°C° 0 mm 2 mps 727 mmHg 40%
    13:00 +16°C° 0 mm 2 mps 727 mmHg 39%
    14:00 +17°C° 0 mm 2 mps 726 mmHg 38%
    15:00 +16°C° 0 mm 2 mps 726 mmHg 44%
    16:00 +15°C° 0 mm 2 mps 726 mmHg 50%
    17:00 +14°C° 0 mm 2 mps 725 mmHg 55%
    18:00 +12°C° 0 mm 2 mps 725 mmHg 62%
    19:00 +11°C° 0 mm 1 mps 725 mmHg 69%
    20:00 +9°C° 0 mm 1 mps 725 mmHg 76%
    21:00 +9°C° 0 mm 1 mps 725 mmHg 77%
    22:00 +8°C° 0 mm 1 mps 725 mmHg 79%
    23:00 +8°C° 0 mm 1 mps 725 mmHg 81%
    Show more